Wind_Speed
29 29 30 31 31 32 32 32 33 33 34 36 36 36 36 36 37 38 39 40 41 42 42 43 43 43 42 42 42 41 41 40 39 38 37 36 35 33
31 31 32 33 33 34 34 34 34 34 35 37 38 38 38 38 38 38 39 41 42 43 43 44 44 44 43 43 43 42 42 42 41 40 39 37 36 35
33 33 33 34 34 35 35 36 36 36 36 37 39 39 39 39 39 39 40 41 42 43 44 45 46 45 44 44 44 43 43 43 43 42 40 39 38 37
35 34 34 35 35 35 35 35 36 36 36 36 38 39 40 40 40 40 40 41 42 43 44 45 46 46 45 45 45 44 44 44 44 44 42 41 40 39
35 35 35 35 35 35 35 35 36 36 36 37 37 39 40 41 41 41 41 42 43 43 44 45 45 46 46 46 45 44 44 44 45 45 44 43 42 41
36 36 36 35 35 35 35 35 35 35 36 37 37 39 39 41 42 42 43 43 43 43 44 45 46 46 47 47 46 45 44 44 44 45 45 44 43 42
37 37 36 35 35 35 35 35 35 35 35 36 37 38 39 40 41 42 43 44 44 44 44 45 46 46 47 47 47 47 46 45 44 45 45 45 44 43
38 37 36 36 35 35 35 34 35 35 35 36 36 37 38 39 40 41 42 43 44 45 46 45 46 46 46 47 47 47 47 46 45 45 44 45 45 44
38 37 37 36 35 34 34 34 34 35 35 36 36 37 38 39 40 40 41 42 43 45 46 46 46 46 46 46 46 47 47 47 46 45 45 44 45 45
38 37 37 36 36 34 33 33 33 34 35 35 35 36 38 39 40 41 41 41 42 44 45 45 46 47 47 47 46 46 47 48 47 47 46 45 45 45
38 38 37 36 35 34 32 32 33 34 35 35 35 36 37 39 40 41 42 42 42 44 45 45 45 46 47 46 46 46 46 47 47 48 47 47 46 45
38 38 37 36 34 34 33 33 33 34 35 35 36 36 38 39 40 41 42 42 43 44 45 45 46 47 47 47 46 46 46 46 47 48 48 47 47 47
38 37 36 35 34 34 33 33 33 34 34 35 36 37 38 39 39 40 41 42 43 44 46 47 47 47 47 47 47 46 46 46 47 48 48 48 48 47
38 37 36 35 34 34 34 34 33 33 33 33 34 35 36 37 38 40 41 42 43 43 45 47 47 47 46 46 46 46 46 46 46 46 46 48 48 47
38 36 35 35 34 33 33 33 32 32 31 31 32 33 35 36 37 39 40 41 43 43 44 46 46 47 47 47 47 46 46 47 47 46 47 47 47 47
37 36 35 34 33 32 32 31 31 30 29 29 29 30 32 34 36 37 39 41 42 43 44 44 46 47 47 48 46 46 46 47 48 48 47 47 47 46
36 35 34 33 31 31 30 30 30 29 28 28 27 27 28 30 32 35 37 39 40 42 43 44 45 46 47 48 47 46 46 47 48 48 48 47 48 47
35 34 33 32 30 30 29 29 29 28 27 26 25 25 25 27 28 31 34 37 39 40 42 44 45 46 46 47 46 46 46 47 48 48 48 48 48 49
35 34 33 32 30 29 29 28 27 26 25 24 24 24 24 25 26 28 30 33 36 39 41 43 44 45 45 45 45 45 46 47 48 49 48 48 48 49
34 33 32 30 29 29 28 26 25 25 24 23 23 23 23 23 24 26 28 31 33 36 38 41 42 44 44 44 45 45 45 45 45 47 47 47 47 48
33 32 30 29 28 27 26 25 25 24 23 22 22 22 22 22 22 24 26 29 31 34 36 37 40 43 44 44 43 44 44 44 44 46 47 47 47 47
31 30 29 27 26 26 25 24 23 22 21 20 20 20 20 20 21 22 24 26 29 31 33 35 38 41 42 42 42 43 43 44 44 45 46 47 48 47
29 29 27 26 25 25 24 22 21 20 19 18 18 18 18 18 19 21 23 25 27 29 31 34 37 39 40 40 41 42 43 43 44 44 46 46 46 47
Wind_Direction
300 295 292 288 284 280 275 271 266 263 261 259 256 253 250 247 246 244 242 240 238 237 236 234 234 234 233 232 232 231 230 230 231 233 234 236 236 236
302 298 293 289 285 281 277 274 270 265 261 258 256 254 251 249 246 244 242 240 239 237 236 235 234 233 233 232 231 232 231 231 231 232 234 235 235 235
302 298 294 290 286 282 279 275 271 267 263 259 257 254 252 249 247 245 242 241 239 238 237 234 233 233 233 232 232 232 231 230 231 232 233 233 234 235
304 300 295 291 288 284 280 276 272 268 264 260 257 255 252 250 247 245 243 241 239 238 237 235 234 233 232 232 232 232 231 230 231 231 233 233 233 234
305 301 297 293 289 285 282 278 274 269 265 261 258 256 254 250 247 246 244 242 240 239 237 236 235 233 232 232 231 231 231 230 231 231 232 233 233 234
305 302 298 295 291 287 283 279 275 271 267 263 259 256 254 251 247 245 244 242 240 239 237 235 234 234 233 232 231 230 230 230 231 231 232 233 234 234
305 302 300 297 293 289 285 280 276 273 269 265 260 256 253 251 249 245 243 241 240 239 237 236 235 234 233 232 231 230 230 230 231 230 231 232 232 232
305 302 300 297 294 290 286 282 277 274 270 266 262 257 253 251 249 246 243 241 240 239 236 235 234 233 232 232 231 230 230 230 230 230 230 231 230 230
305 303 300 298 296 292 288 283 279 275 271 267 262 258 254 251 249 247 244 241 238 237 236 234 233 232 231 230 230 229 229 229 229 229 229 229 228 228
306 303 301 299 296 293 289 284 280 277 272 267 262 259 256 252 249 246 243 241 238 237 235 233 232 231 231 229 229 229 228 228 227 227 227 228 226 226
306 303 301 299 296 293 290 287 283 279 275 270 265 261 257 253 250 247 244 241 238 236 234 232 232 231 230 229 228 228 227 226 226 225 226 225 225 225
306 303 301 299 296 294 291 288 285 280 277 273 268 263 258 254 251 248 244 241 237 235 233 231 230 230 229 228 228 227 227 226 226 225 224 224 224 225
305 303 300 298 296 294 292 290 287 283 279 274 269 264 260 255 251 247 243 240 237 234 232 231 229 229 228 227 227 227 226 226 226 225 223 223 224 225
305 303 300 298 296 293 291 291 289 286 281 276 271 265 260 255 251 247 243 240 236 234 232 230 228 227 227 226 226 226 225 224 224 224 223 222 223 224
305 303 300 298 296 294 292 291 290 287 283 278 273 267 261 255 250 246 243 240 236 233 232 230 228 226 225 224 224 225 224 223 222 222 221 221 221 222
305 303 301 299 297 295 293 292 291 288 284 280 276 269 263 257 251 246 242 238 235 232 230 230 228 227 224 223 223 223 223 222 221 220 219 220 221 221
303 302 302 300 297 295 294 293 292 290 286 282 278 272 265 258 252 246 241 237 234 232 230 228 228 226 225 224 223 223 223 222 221 219 219 220 220 221
302 301 300 299 297 295 294 294 292 289 285 283 279 272 266 259 252 246 240 235 232 230 229 227 226 225 223 223 223 224 224 222 220 219 219 219 220 220
300 300 300 298 297 295 295 294 291 288 284 281 278 273 266 259 252 245 239 234 231 228 227 226 225 224 223 222 222 223 224 224 223 222 221 220 220 218
299 299 299 298 296 295 294 293 291 287 284 281 277 272 266 259 251 244 239 235 230 226 225 224 224 223 221 220 220 221 222 222 222 222 222 221 220 219
297 298 297 296 296 295 293 292 291 287 284 281 277 271 265 258 249 243 237 232 229 226 223 223 222 221 219 218 219 220 220 220 221 221 221 221 219 219
295 296 297 297 296 295 293 291 289 288 284 281 277 271 265 257 247 240 235 231 228 225 222 221 220 218 217 218 218 220 219 219 219 220 220 219 218 218
293 296 297 296 296 297 294 290 288 286 284 280 277 270 263 253 245 239 235 231 228 224 222 220 218 217 217 218 218 218 218 218 218 219 219 219 218 217
Height
5797 5795 5792 5790 5788 5787 5786 5786 5787 5787 5787 5787 5788 5789 5791 5793 5795 5797 5799 5802 5806 5810 5814 5818 5822 5827 5831 5835 5840 5844 5849 5853 5858 5863 5867 5871 5875 5878
5789 5786 5783 5781 5779 5777 5776 5775 5775 5776 5776 5776 5777 5778 5780 5782 5784 5786 5789 5792 5796 5799 5803 5808 5812 5817 5821 5826 5830 5835 5840 5845 5850 5854 5859 5863 5867 5871
5780 5776 5773 5770 5768 5766 5765 5764 5764 5764 5765 5765 5765 5767 5769 5771 5773 5776 5779 5782 5785 5788 5792 5797 5801 5806 5811 5816 5820 5825 5830 5835 5841 5846 5850 5855 5859 5863
5770 5766 5763 5760 5758 5755 5754 5753 5752 5752 5753 5754 5754 5755 5757 5759 5762 5765 5768 5771 5774 5778 5781 5786 5790 5795 5801 5805 5810 5815 5820 5826 5831 5836 5841 5846 5851 5855
5760 5756 5753 5750 5747 5745 5743 5742 5741 5740 5741 5742 5743 5743 5745 5747 5750 5753 5756 5759 5763 5766 5770 5774 5779 5784 5789 5795 5800 5805 5810 5816 5821 5827 5832 5837 5842 5847
5750 5746 5743 5739 5736 5734 5732 5730 5729 5729 5729 5730 5730 5731 5733 5734 5737 5741 5744 5747 5751 5755 5759 5763 5768 5773 5778 5784 5789 5795 5800 5805 5811 5817 5822 5827 5833 5838
5740 5736 5732 5729 5725 5723 5721 5719 5717 5717 5716 5717 5718 5719 5720 5722 5725 5728 5731 5735 5739 5743 5748 5752 5757 5762 5767 5772 5778 5783 5789 5795 5801 5806 5812 5817 5823 5828
5731 5726 5722 5718 5715 5712 5709 5707 5706 5705 5705 5705 5706 5707 5708 5710 5712 5715 5719 5723 5728 5731 5736 5740 5745 5751 5756 5761 5767 5772 5778 5784 5790 5796 5801 5807 5813 5819
5721 5716 5712 5708 5704 5701 5698 5696 5695 5693 5693 5693 5694 5695 5696 5698 5700 5703 5706 5710 5715 5719 5723 5729 5734 5739 5744 5750 5756 5761 5767 5773 5779 5785 5791 5797 5803 5809
5711 5706 5702 5698 5693 5690 5688 5686 5684 5682 5681 5681 5682 5683 5684 5685 5688 5691 5694 5698 5703 5706 5711 5717 5722 5728 5733 5739 5745 5751 5756 5762 5769 5775 5781 5787 5793 5799
5700 5696 5692 5688 5683 5680 5678 5675 5673 5671 5669 5669 5670 5670 5671 5673 5675 5678 5682 5686 5690 5694 5699 5705 5710 5716 5722 5728 5733 5740 5745 5751 5758 5764 5770 5777 5783 5789
5691 5686 5681 5677 5674 5670 5667 5665 5663 5660 5658 5658 5658 5658 5659 5660 5662 5665 5668 5672 5677 5682 5686 5692 5698 5703 5710 5716 5722 5728 5734 5740 5746 5753 5759 5766 5773 5779
5681 5676 5671 5667 5663 5660 5657 5654 5651 5649 5647 5646 5645 5644 5645 5646 5648 5651 5655 5659 5664 5670 5674 5679 5686 5691 5698 5705 5711 5717 5723 5730 5736 5742 5749 5755 5762 5769
5671 5666 5661 5657 5653 5650 5646 5643 5640 5638 5635 5633 5632 5632 5632 5633 5635 5638 5642 5646 5652 5657 5661 5667 5674 5680 5687 5693 5700 5706 5713 5719 5726 5732 5738 5745 5752 5759
5661 5656 5651 5647 5643 5640 5636 5633 5630 5627 5624 5622 5621 5620 5620 5621 5623 5626 5629 5634 5639 5644 5650 5655 5662 5668 5675 5682 5689 5695 5702 5708 5715 5722 5728 5735 5742 5749
5651 5646 5641 5637 5633 5630 5626 5623 5619 5616 5614 5612 5610 5608 5608 5609 5611 5614 5617 5621 5627 5632 5638 5644 5650 5657 5664 5671 5678 5684 5691 5698 5705 5711 5718 5725 5731 5738
5641 5636 5632 5627 5624 5620 5617 5613 5610 5607 5604 5602 5600 5598 5598 5598 5600 5602 5605 5609 5615 5621 5627 5633 5639 5645 5652 5659 5667 5674 5680 5687 5694 5701 5708 5715 5722 5729
5630 5626 5622 5618 5614 5611 5607 5604 5601 5597 5595 5593 5591 5589 5589 5589 5590 5592 5594 5599 5604 5609 5615 5621 5627 5634 5642 5649 5657 5663 5669 5676 5683 5690 5697 5704 5711 5718
5620 5616 5612 5608 5605 5601 5598 5595 5592 5589 5586 5584 5583 5581 5580 5580 5581 5583 5585 5589 5594 5599 5604 5610 5617 5624 5632 5639 5646 5653 5659 5666 5672 5679 5687 5694 5701 5708
5610 5606 5602 5599 5595 5592 5589 5586 5583 5581 5578 5576 5575 5574 5573 5572 5573 5575 5578 5581 5585 5590 5595 5601 5608 5615 5622 5629 5636 5642 5649 5656 5663 5670 5676 5683 5690 5697
5600 5597 5593 5590 5587 5583 5580 5578 5575 5572 5570 5568 5567 5566 5565 5565 5566 5568 5570 5573 5577 5582 5588 5593 5599 5605 5611 5619 5627 5633 5640 5647 5653 5660 5667 5673 5681 5688
5591 5587 5584 5581 5578 5575 5572 5570 5567 5565 5563 5561 5560 5559 5558 5558 5559 5561 5563 5566 5570 5575 5580 5585 5590 5596 5604 5611 5618 5624 5630 5637 5644 5650 5657 5665 5672 5680
5582 5579 5576 5572 5570 5567 5564 5562 5560 5558 5556 5554 5553 5552 5552 5552 5553 5555 5557 5560 5563 5568 5572 5578 5583 5589 5596 5602 5609 5615 5622 5628 5635 5642 5649 5656 5663 5669